Location: Unspecified
(0.0000°N, 0.0000°E)
Time: 20:11:13
(UTC+00:00)

ISS - Pass Details

Date: 22 February 2018
Orbit: 403 x 407 km, 51.6° (Epoch: 20 February)

Event Time Altitude Azimuth Distance (km) Brightness Sun altitude
Exits shadow 05:27:29 - 224° (SW) 1,914 -0.7 -11.3°
Reaches altitude 10° 05:28:37 10° 227° (SW) 1,457 -1.4 -11.0°
Maximum altitude 05:31:49 53° 305° (NW) 500 -3.7 -10.3°
Drops below altitude 10° 05:34:59 10° 24° (NNE) 1,448 -0.9 -9.5°
Sets 05:37:05 0° 28° (NNE) 2,303 0.3 -9.0°
